Location: ?????
(33.6267°N, 35.4675°E)
Time: 15:12:09
(UTC+00:00)

ATLAS 5 CENTAUR R/B - Pass Details

Date: 28 February 2020
Orbit: 548 x 1111 km, 63.4° (Epoch: 30 March)

Event Time Altitude Azimuth Distance (km) Brightness Sun altitude
Rises 02:26:43 0° 173° (S) 2,697 4.9 -22.0°
Reaches altitude 10° 02:29:27 10° 153° (SSE) 1,815 4.2 -21.4°
Maximum altitude 02:32:09 18° 110° (ESE) 1,425 4.2 -20.9°
Drops below altitude 10° 02:34:58 10° 68° (ENE) 1,897 5.1 -20.3°
Sets 02:37:54 0° 49° (NE) 2,873 5.8 -19.7°
